Location: Recife
(8.0585°S, 34.8848°W)
Time: 08:38:59
(UTC-03:00)

Courier 1B Rocket - Pass Details

Date: 16 April 2026
Orbit: 920 x 1201 km, 28.2° (Epoch: 13 May)

Event Time Altitude Azimuth Distance (km) Brightness Sun altitude
Rises 13:14:35 0° 237° (WSW) 4,043 8.4 55.9°
Reaches altitude 10° 13:17:25 10° 235° (SW) 3,102 8.0 55.3°
Maximum altitude 13:25:10 68° 152° (SSE) 1,277 6.3 53.7°
Drops below altitude 10° 13:32:55 10° 70° (ENE) 3,108 7.5 52.0°
Sets 13:35:45 0° 67° (ENE) 4,050 8.0 51.4°
